This is the latest recevied weather packets stored in our database for station/object F4NFR-13. If no packets are shown the sender has not sent any weather packets the latest 10 day(s).
| Time | Temp. | Humidity | Pressure | Rain* | Wind** | Luminosity | Snow |
|---|---|---|---|---|---|---|---|
| 1777756133 | 16.11° C | 79% | 1014.4 hPa | 0 mm | - | 0 W/m² | - |
| 1777755830 | 16.11° C | 78% | 1014 hPa | 0 mm | - | 0 W/m² | - |
| 1777755528 | 16.11° C | 77% | 1014 hPa | 0 mm | - | 0 W/m² | - |
| 1777755226 | 17.22° C | 76% | 1014 hPa | 0 mm | - | 0 W/m² | - |
| 1777754924 | 17.22° C | 75% | 1014 hPa | 0 mm | - | 0 W/m² | - |
| 1777754621 | 17.22° C | 74% | 1014 hPa | 0 mm | - | 0 W/m² | - |
| 1777754319 | 17.22° C | 72% | 1014 hPa | 0 mm | - | 0 W/m² | - |
| 1777754016 | 17.22° C | 73% | 1014 hPa | 0 mm | - | 0 W/m² | - |
| 1777753109 | 17.22° C | 72% | 1014.4 hPa | 0 mm | - | 0 W/m² | - |
| 1777752807 | 17.22° C | 72% | 1014.4 hPa | 0 mm | - | 0 W/m² | - |
| 1777752504 | 17.22° C | 73% | 1014.4 hPa | 0 mm | - | 0 W/m² | - |
| 1777752202 | 17.22° C | 73% | 1014.4 hPa | 0 mm | - | 0 W/m² | - |
| 1777751900 | 17.22° C | 73% | 1014.4 hPa | 0 mm | - | 0 W/m² | - |
| 1777751597 | 17.22° C | 74% | 1014.4 hPa | 0 mm | - | 0 W/m² | - |
| 1777751295 | 17.22° C | 74% | 1014.4 hPa | 0 mm | - | 0 W/m² | - |
| 1777750690 | 17.78° C | 75% | 1014.4 hPa | 0 mm | - | 0 W/m² | - |
| 1777750388 | 17.22° C | 76% | 1014.4 hPa | 0 mm | - | 0 W/m² | - |
| 1777749783 | 17.78° C | 83% | 1014.4 hPa | 0 mm | - | 2 W/m² | - |
| 1777749178 | 17.78° C | 84% | 1014.4 hPa | 0 mm | - | 4 W/m² | - |
| 1777748876 | 17.78° C | 82% | 1014.4 hPa | 0 mm | - | 5 W/m² | - |
| 1777748192 | 17.78° C | 84% | 1014.4 hPa | 0 mm | - | 11 W/m² | - |
| 1777747889 | 17.78° C | 83% | 1014.4 hPa | 0 mm | - | 17 W/m² | - |
| 1777747587 | 17.78° C | 83% | 1014.4 hPa | 0 mm | - | 23 W/m² | - |
| 1777747285 | 17.78° C | 84% | 1014.4 hPa | 0 mm | - | 27 W/m² | - |
| 1777746982 | 17.78° C | 86% | 1014 hPa | 0 mm | - | 38 W/m² | - |
* Rain latest hour (hover to see other rain measurements)
** Current wind speed in m/s (hover to see current wind gust speed)